Hoquiam, WA
on Wednesday, February 6, 2013

Wednesday
Previous Day Next Day
Daily Summary
 ActualAverageRecord
Temperature
Mean Temperature °F 43°F  
Max Temperature 46°F 49°F 61°F (1954)
Min Temperature 42°F 38°F 20°F (1989)
Degree Days
Heating Degree Days 21 22  
Month to date heating degree days 132  
Cooling Degree Days 0 0  
Month to date cooling degree days 0  
Year to date cooling degree days 0  
Moisture
Dew Point 42°F   
Average Humidity 89    
Maximum Humidity 93    
Minimum Humidity 83    
Precipitation
Precipitation 0.43 in 0.29 in 2.61 in (1979)
Month to date precipitation 1.70  
Year to date precipitation 12.03  
Wind
Wind Speed 11 mph   
Max Wind Speed 23 mph   
Max Gust Speed 29 mph   
Visibility 9 miles   
Events Rain   

Key: T is trace of precipitation, MM is missing value
Source: NWS Daily Summary
Time(PST)TemperatureDew PointHumidity Pressure Visibility Wind DirectionWind SpeedGust SpeedPrecipitationEvents Conditions
12:26 AM 44.6°F 42.8°F 93% 29.97 in 5.0 miles South 8.1 mph - 0.02 in Rain Rain
12:53 AM 46.0°F 43.0°F 89% 29.98 in 10.0 miles South 11.5 mph - 0.03 in   Overcast
1:06 AM 46.4°F 42.8°F 87% 29.97 in 10.0 miles South 10.4 mph - N/A   Overcast
1:53 AM 45.0°F 42.1°F 90% 29.99 in 10.0 miles South 12.7 mph - 0.00 in   Overcast
2:32 AM 46.4°F 42.8°F 87% 29.99 in 10.0 miles South 12.7 mph - N/A   Overcast
2:53 AM 45.0°F 42.1°F 90% 30.01 in 10.0 miles South 11.5 mph - N/A   Overcast
3:10 AM 44.6°F 42.8°F 93% 30.00 in 10.0 miles South 8.1 mph - N/A   Overcast
3:53 AM 45.0°F 42.1°F 90% 30.01 in 10.0 miles South 9.2 mph - N/A   Overcast
4:21 AM 44.6°F 42.8°F 93% 30.00 in 9.0 miles SSW 9.2 mph - 0.01 in Rain Light Rain
4:46 AM 44.6°F 42.8°F 93% 30.01 in 10.0 miles South 8.1 mph - 0.01 in   Overcast
4:53 AM 45.0°F 42.1°F 90% 30.02 in 10.0 miles South 6.9 mph - 0.01 in   Overcast
5:02 AM 44.6°F 42.8°F 93% 30.01 in 7.0 miles South 11.5 mph 18.4 mph 0.01 in Rain Light Rain
5:14 AM 44.6°F 41.0°F 87% 30.01 in 10.0 miles South 9.2 mph - 0.01 in   Overcast
5:41 AM 44.6°F 42.8°F 93% 30.01 in 10.0 miles South 3.5 mph - 0.01 in   Mostly Cloudy
5:53 AM 44.1°F 42.1°F 93% 30.02 in 10.0 miles South 3.5 mph - 0.01 in   Mostly Cloudy
6:53 AM 45.0°F 41.0°F 86% 30.03 in 10.0 miles SE 5.8 mph - N/A   Scattered Clouds
7:07 AM 44.6°F 41.0°F 87% 30.01 in 10.0 miles East 5.8 mph - N/A   Mostly Cloudy
7:36 AM 44.6°F 42.8°F 93% 30.01 in 10.0 miles ESE 6.9 mph - N/A   Mostly Cloudy
7:53 AM 45.0°F 42.1°F 90% 30.02 in 10.0 miles ESE 9.2 mph - N/A   Overcast
8:53 AM 45.0°F 42.1°F 90% 30.03 in 10.0 miles ESE 10.4 mph - N/A   Overcast
9:53 AM 45.0°F 42.1°F 90% 30.02 in 10.0 miles ESE 12.7 mph - N/A   Overcast
10:05 AM 44.6°F 42.8°F 93% 30.01 in 10.0 miles ESE 13.8 mph - N/A   Overcast
10:42 AM 46.4°F 42.8°F 87% 30.00 in 10.0 miles ESE 13.8 mph - 0.00 in   Overcast
10:53 AM 46.0°F 42.1°F 86% 30.01 in 10.0 miles ESE 13.8 mph - 0.00 in   Mostly Cloudy
11:34 AM 46.4°F 42.8°F 87% 29.99 in 7.0 miles ESE 11.5 mph - 0.01 in Rain Light Rain
11:53 AM 45.0°F 42.1°F 90% 29.99 in 4.0 miles ESE 8.1 mph - 0.04 in Rain Light Rain
12:53 PM 46.9°F 43.0°F 86% 29.97 in 10.0 miles ESE 9.2 mph - 0.00 in   Overcast
1:09 PM 46.4°F 42.8°F 87% 29.96 in 6.0 miles SE 13.8 mph 21.9 mph 0.01 in Rain Light Rain
1:45 PM 46.4°F 42.8°F 87% 29.94 in 8.0 miles ESE 12.7 mph - 0.06 in Rain Light Rain
1:53 PM 46.9°F 42.1°F 83% 29.95 in 10.0 miles SE 12.7 mph 20.7 mph 0.06 in   Overcast
2:42 PM 46.4°F 42.8°F 87% 29.92 in 10.0 miles SE 11.5 mph - 0.00 in   Overcast
2:53 PM 46.9°F 43.0°F 86% 29.93 in 10.0 miles SE 13.8 mph - 0.00 in   Overcast
3:53 PM 46.9°F 42.1°F 83% 29.91 in 10.0 miles ESE 13.8 mph - 0.03 in   Overcast
4:24 PM 46.4°F 42.8°F 87% 29.88 in 10.0 miles East 15.0 mph - 0.00 in   Overcast
4:53 PM 46.0°F 43.0°F 89% 29.88 in 6.0 miles East 13.8 mph - 0.00 in Rain Light Rain
5:53 PM 46.0°F 42.1°F 86% 29.86 in 10.0 miles East 17.3 mph 24.2 mph 0.01 in   Overcast
6:18 PM 46.4°F 42.8°F 87% 29.83 in 10.0 miles East 16.1 mph - N/A   Overcast
6:53 PM 45.0°F 43.0°F 93% 29.82 in 10.0 miles ENE 13.8 mph - N/A   Overcast
7:35 PM 44.6°F 42.8°F 93% 29.79 in 8.0 miles ENE 13.8 mph - 0.02 in Rain Light Rain
7:53 PM 45.0°F 43.0°F 93% 29.79 in 8.0 miles ENE 11.5 mph - 0.03 in Rain Light Rain
8:02 PM 44.6°F 42.8°F 93% 29.77 in 9.0 miles ENE 10.4 mph - 0.00 in Rain Light Rain
8:53 PM 45.0°F 43.0°F 93% 29.77 in 8.0 miles ENE 12.7 mph - 0.04 in Rain Light Rain
9:53 PM 45.0°F 43.0°F 93% 29.76 in 10.0 miles ESE 10.4 mph - 0.03 in Rain Light Rain
10:53 PM 42.1°F 39.0°F 89% 29.79 in 8.0 miles SSE 18.4 mph 28.8 mph 0.13 in Rain Light Rain
11:03 PM 42.8°F 39.2°F 87% 29.78 in 9.0 miles SSE 20.7 mph - 0.01 in Rain Light Rain
11:53 PM 43.0°F 39.0°F 86% 29.80 in 10.0 miles SE 23.0 mph 28.8 mph 0.01 in   Mostly Cloudy
Moon Phase
Feb. 06 Feb. 10 Feb. 17 Feb. 25 Mar. 04
Sunrise:07:33 AM (PST) Moon Rise:04:30 AM (PST)2/6
Sunset:05:26 PM (PST) Moon Set:01:44 PM (PST)2/6

Copyright © 2014 The Weather Underground, Inc.